Home   Weather   Sydney   Past weeks
Flag for Australia

Past Weather in Sydney, New South Wales, Australia — Yesterday and Last 2 Weeks

Now
77 °F

Sunny.


Feels Like: 78 °F
Forecast: 70 / 58 °F
Wind: 8 mph from Northwest

Location: Sydney Airport

Current Time: May 25, 2019 at 1:11:03 pm

Latest Report: May 25, 2019 at 12:30 pm


Visibility: 10 mi

Pressure: 30.04 "Hg

Humidity: 28%

Dew Point: 41 °F

Location of SydneyLocation

Past Weather in Sydney — Graph

°F

Sydney Temperature Yesterday

Maximum temperature yesterday: 77 °F (at 1:00 pm)
Minimum temperature yesterday: 57 °F (at 5:00 am)
Average temperature yesterday: 67 °F

High & Low Weather Summary for the Past Weeks

 TemperatureHumidityPressure
High81 °F (May 21, 2:00 pm)94% (May 14, 5:00 am)30.45 "Hg (May 14, 5:00 am)
Low50 °F (May 11, 4:00 am)26% (May 24, 3:00 pm)29.86 "Hg (May 10, 1:30 pm)
Average64 °F69%30.27 "Hg
* Reported May 10 11:00 am — May 25 11:30 am, Sydney. Weather by CustomWeather, © 2019

Note: Actual official high and low records may vary slightly from our data, if they occured in-between our weather recording intervals... More about our weather records

Advertising

Sydney Weather History for the Previous 24 Hours

Scroll right to see more
 ConditionsComfort  
Time TempWeatherWind HumidityBarometerVisibility
11:30 am
Sat, May 25
73 °FSunny.8 mph33%30.07 "Hg10 mi
11:00 am73 °FSunny.8 mph36%30.07 "Hg10 mi
10:30 am70 °FSunny.10 mph38%30.09 "Hg10 mi
10:00 am68 °FSunny.10 mph40%30.09 "Hg10 mi
9:30 am66 °FSunny.10 mph46%30.09 "Hg10 mi
9:00 am64 °FSunny.10 mph46%30.12 "Hg10 mi
8:30 am63 °FSunny.10 mph49%30.12 "Hg10 mi
8:00 am59 °FSunny.10 mph55%30.12 "Hg10 mi
7:30 am59 °FSunny.10 mph55%30.12 "Hg10 mi
7:00 am57 °FSunny.8 mph59%30.12 "Hg10 mi
6:30 am57 °FClear.10 mph59%30.09 "Hg10 mi
6:00 am55 °FClear.9 mph67%30.09 "Hg10 mi
5:30 am55 °FClear.12 mph67%30.09 "Hg10 mi
5:00 am55 °FClear.8 mph67%30.09 "Hg10 mi
4:30 am55 °FClear.10 mph72%30.09 "Hg10 mi
4:00 am57 °FClear.10 mph67%30.09 "Hg10 mi
3:30 am57 °FClear.8 mph67%30.09 "Hg10 mi
3:00 am57 °FClear.9 mph67%30.09 "Hg10 mi
2:30 am59 °FClear.7 mph68%30.12 "Hg10 mi
2:00 am59 °FClear.10 mph68%30.12 "Hg10 mi
1:30 am59 °FClear.9 mph72%30.12 "Hg10 mi
1:00 am61 °FClear.10 mph72%30.12 "Hg10 mi
12:30 am61 °FClear.6 mph68%30.12 "Hg10 mi
12:00 am63 °FClear.9 mph64%30.12 "Hg10 mi
11:30 pm
Fri, May 24
64 °FClear.7 mph64%30.12 "Hg10 mi
11:00 pm63 °FClear.8 mph68%30.12 "Hg10 mi
10:30 pm64 °FClear.8 mph60%30.12 "Hg10 mi
10:00 pm66 °FClear.7 mph56%30.12 "Hg10 mi
9:30 pm66 °FPassing clouds.5 mph56%30.15 "HgN/A
9:00 pm66 °FClear.5 mph56%30.15 "Hg10 mi
8:30 pm68 °FClear.6 mph53%30.15 "Hg10 mi
8:00 pm66 °FPassing clouds.5 mph49%30.15 "HgN/A
7:30 pm68 °FClear.6 mph49%30.15 "Hg10 mi
7:00 pm68 °FClear.6 mph53%30.15 "Hg10 mi
6:30 pm70 °FClear.7 mph46%30.12 "Hg10 mi
6:00 pm72 °FClear.8 mph41%30.12 "Hg10 mi
5:30 pm73 °FClear.6 mph38%30.12 "Hg10 mi
5:00 pm73 °FClear.8 mph33%30.12 "Hg10 mi
4:30 pm75 °FSunny.7 mph31%30.12 "Hg10 mi
4:00 pm75 °FSunny.7 mph29%30.12 "Hg10 mi
3:30 pm77 °FSunny.7 mph28%30.09 "Hg10 mi
3:00 pm77 °FSunny.6 mph26%30.09 "Hg10 mi
2:30 pm77 °FSunny.8 mph28%30.12 "Hg10 mi
2:00 pm77 °FSunny.7 mph28%30.12 "Hg10 mi
1:30 pm77 °FSunny.8 mph30%30.12 "Hg10 mi
1:00 pm77 °FSunny.8 mph34%30.12 "Hg10 mi
Weather by CustomWeather, © 2019

See weather overview